This is the latest recevied weather packets stored in our database for station/object BV3BA-13. If no packets are shown the sender has not sent any weather packets the latest 10 day(s).
| Time | Temp. | Humidity | Pressure | Rain* | Wind** | Luminosity | Snow |
|---|---|---|---|---|---|---|---|
| 1777624624 | 24.44° C | 69% | 1009.4 hPa | 0 mm | - | - | - |
| 1777624023 | 24.44° C | 68% | 1009.4 hPa | 0 mm | - | - | - |
| 1777623423 | 23.89° C | 68% | 1009.5 hPa | 0 mm | - | - | - |
| 1777622824 | 24.44° C | 69% | 1009.7 hPa | 0 mm | - | - | - |
| 1777622224 | 24.44° C | 68% | 1009.9 hPa | 0 mm | - | - | - |
| 1777621624 | 24.44° C | 68% | 1010 hPa | 0 mm | - | - | - |
| 1777621024 | 24.44° C | 68% | 1009.9 hPa | 0 mm | - | - | - |
| 1777620424 | 25° C | 67% | 1010 hPa | 0 mm | - | - | - |
| 1777619823 | 24.44° C | 67% | 1010.1 hPa | 0 mm | - | - | - |
| 1777619225 | 24.44° C | 66% | 1010.1 hPa | 0 mm | - | - | - |
| 1777618627 | 25° C | 64% | 1010.2 hPa | 0 mm | - | - | - |
| 1777618024 | 24.44° C | 64% | 1010.3 hPa | 0 mm | - | - | - |
| 1777617424 | 25.56° C | 67% | 1010.3 hPa | 0 mm | - | - | - |
| 1777616823 | 24.44° C | 69% | 1010.4 hPa | 0 mm | - | - | - |
| 1777616223 | 24.44° C | 67% | 1010.4 hPa | 0 mm | - | - | - |
| 1777615627 | 24.44° C | 65% | 1010.5 hPa | 0 mm | - | - | - |
| 1777615024 | 25° C | 65% | 1010.6 hPa | 0 mm | - | - | - |
| 1777614424 | 24.44° C | 67% | 1010.7 hPa | 0 mm | - | - | - |
| 1777613824 | 24.44° C | 68% | 1010.9 hPa | 0 mm | - | - | - |
| 1777613224 | 24.44° C | 67% | 1011 hPa | 0 mm | - | - | - |
| 1777612623 | 24.44° C | 65% | 1011.2 hPa | 0 mm | - | - | - |
| 1777612024 | 25° C | 67% | 1011.3 hPa | 0 mm | - | - | - |
| 1777611424 | 24.44° C | 64% | 1011.5 hPa | 0 mm | - | - | - |
| 1777610824 | 24.44° C | 65% | 1011.6 hPa | 0 mm | - | - | - |
| 1777610223 | 25° C | 64% | 1011.7 hPa | 0 mm | - | - | - |
* Rain latest hour (hover to see other rain measurements)
** Current wind speed in m/s (hover to see current wind gust speed)